Weather in Novoaleksandrovsk

Russia / Stavropol Krai     45°29′35″N   41°12′55″E
temp.,
°C
wind,
m/s
gust,
m/s
humid.,
%
clouds,
%
prec.,
mm/h
press.,
hPa
HPBL,
m
10 may, mon
mon1000:00+6wsw6148855 0.0 1021333
03:00+5wsw5109460 0.6 1022267
06:00+5wsw599417 0.3 1022309
09:00+10w79698 0.9 10211249
12:00+12w91158100 0.8 10201917
15:00+11wnw91267100 1.8 10201588
18:00+9wnw8137994 0.5 10191153
21:00+7w71385100 0.9 1019905
11 may, tue
tue1100:00+7wsw71481100 0.3 1017866
03:00+8wsw101769100 0.6 10161071
06:00+8sw101771100 0.7 10151249
09:00+8ssw81782100 3.4 10161579
12:00+10sw6970100 1.6 1016789
15:00+11ssw5866100 1.8 10171084
18:00+10sse3886100 0.9 1018405
21:00+8nw1192100 2.3 101829
12 may, wed
wed1200:00+8nne2396100 0.6 1018102
03:00+8ne4698100 1.4 1017172
06:00+8ene379792 0.0 1018246
09:00+13ese45755 0.0 1017642
12:00+17ese45585 0.0 10161311
15:00+19ese565599 0.0 10161547
18:00+17e3673100 0.0 1015181
21:00+13e48860 0.0 1015137
13 may, thu
thu1300:00+12e47840 0.0 1015105
03:00+11e4108673 0.0 1014174
06:00+12e512866 0.0 1014271
09:00+19ese796846 0.0 1013595
12:00+23ese675920 0.0 1013912
15:00+24ese67595 0.0 1013948
18:00+22ese5107399 0.0 1013366
21:00+18ese5138271 0.0 1013245
14 may, fri
fri1400:00+16e513790 0.0 1012212
03:00+15ese49810 0.0 1012133
06:00+15ese37865 0.0 1012120
09:00+23ese34685 0.0 1012356
12:00+28ese335526 0.0 1012718
15:00+29e335057 0.0 1011967
18:00+25e597362 0.0 1011258
21:00+20ese4108022 0.0 1011156